Precipitable_Water
0.25 0.19 0.17 0.16 0.17 0.17 0.17 0.17 0.16 0.17 0.18 0.18 0.17 0.18 0.19 0.19 0.18 0.19 0.18 0.16 0.15 0.15 0.14 0.14 0.15 0.16 0.16 0.15 0.16 0.17 0.18 0.18 0.20 0.28 0.40 0.53 0.60 0.64 0.69 0.71 0.71 0.71 0.72 0.90 1.06 1.17 1.20 1.19 1.21 1.25 1.27 1.27 1.30 1.40 1.39 1.39 1.53 1.44 1.51 1.40 1.27 1.31 1.29 1.22 1.15 1.12 1.10 1.08 1.07 1.08 1.02 0.95 1.01 1.01 1.03 1.04 1.05 1.07 1.08 1.08 1.07 1.10 1.11 1.14 1.18 1.20
0.24 0.18 0.17 0.17 0.18 0.18 0.18 0.19 0.18 0.18 0.20 0.19 0.19 0.19 0.17 0.18 0.17 0.21 0.20 0.18 0.17 0.14 0.14 0.15 0.15 0.15 0.16 0.16 0.17 0.19 0.18 0.23 0.26 0.29 0.39 0.47 0.56 0.65 0.70 0.73 0.70 0.72 0.86 0.91 1.00 1.13 1.18 1.17 1.19 1.22 1.25 1.30 1.24 1.35 1.49 1.36 1.35 1.38 1.38 1.39 1.30 1.29 1.26 1.19 1.10 1.04 1.02 1.01 0.98 0.93 0.90 0.89 0.89 0.93 0.93 0.94 0.99 1.02 1.03 1.04 1.01 1.00 1.04 1.11 1.13 1.18
0.20 0.17 0.18 0.19 0.19 0.20 0.19 0.20 0.22 0.21 0.19 0.19 0.19 0.19 0.18 0.18 0.19 0.22 0.20 0.20 0.20 0.16 0.15 0.16 0.15 0.16 0.16 0.16 0.18 0.18 0.18 0.24 0.31 0.31 0.42 0.49 0.55 0.62 0.68 0.67 0.68 0.73 0.74 0.81 0.90 1.06 1.16 1.20 1.22 1.30 1.35 1.44 1.44 1.40 1.26 1.35 1.43 1.38 1.40 1.39 1.31 1.27 1.24 1.16 1.12 1.09 1.05 1.06 1.02 0.96 0.89 0.86 0.86 0.95 0.93 0.92 0.93 0.95 0.94 0.97 0.98 1.00 0.98 1.01 1.08 1.13
0.17 0.18 0.18 0.19 0.19 0.20 0.21 0.21 0.23 0.23 0.22 0.19 0.18 0.18 0.17 0.18 0.20 0.19 0.20 0.20 0.21 0.19 0.16 0.16 0.15 0.16 0.18 0.19 0.18 0.18 0.22 0.25 0.27 0.31 0.43 0.45 0.47 0.58 0.59 0.61 0.64 0.68 0.72 0.72 0.86 1.02 1.22 1.26 1.28 1.33 1.35 1.35 1.38 1.36 1.34 1.34 1.29 1.34 1.35 1.33 1.30 1.28 1.22 1.14 1.16 1.13 1.10 1.06 0.99 0.95 0.91 0.90 0.87 0.85 0.88 0.85 0.88 0.89 0.89 0.87 0.96 1.01 1.03 1.01 1.01 1.04
0.18 0.20 0.23 0.24 0.22 0.20 0.19 0.22 0.23 0.23 0.22 0.22 0.22 0.19 0.18 0.20 0.23 0.23 0.28 0.23 0.25 0.22 0.20 0.18 0.17 0.19 0.18 0.17 0.16 0.17 0.18 0.26 0.30 0.30 0.40 0.53 0.51 0.62 0.66 0.69 0.65 0.63 0.68 0.75 0.95 1.13 1.16 1.17 1.19 1.26 1.37 1.32 1.25 1.18 1.19 1.24 1.24 1.29 1.30 1.31 1.34 1.32 1.23 1.17 1.17 1.11 1.09 1.00 0.90 0.90 0.91 0.90 0.88 0.87 0.83 0.76 0.77 0.83 0.88 0.90 0.90 0.93 0.96 0.96 0.95 0.98
0.18 0.22 0.25 0.23 0.25 0.25 0.20 0.20 0.22 0.24 0.22 0.25 0.24 0.22 0.19 0.23 0.24 0.25 0.29 0.29 0.25 0.19 0.20 0.19 0.16 0.16 0.19 0.18 0.16 0.16 0.17 0.19 0.26 0.28 0.31 0.44 0.55 0.63 0.63 0.65 0.69 0.71 0.79 0.91 0.99 1.00 1.10 1.19 1.18 1.22 1.32 1.29 1.20 1.17 1.24 1.24 1.29 1.31 1.36 1.39 1.41 1.35 1.27 1.21 1.17 1.11 1.05 0.90 0.85 0.85 0.80 0.76 0.78 0.76 0.75 0.70 0.74 0.81 0.82 0.82 0.87 0.94 0.93 0.93 0.93 0.98
0.19 0.25 0.26 0.25 0.26 0.26 0.24 0.21 0.23 0.24 0.22 0.22 0.24 0.25 0.22 0.24 0.25 0.26 0.25 0.25 0.22 0.20 0.22 0.22 0.16 0.16 0.21 0.20 0.20 0.18 0.17 0.16 0.22 0.27 0.36 0.42 0.52 0.59 0.60 0.65 0.68 0.75 0.86 0.93 0.96 1.05 1.11 1.14 1.13 1.17 1.23 1.31 1.26 1.26 1.31 1.38 1.35 1.41 1.44 1.42 1.39 1.30 1.25 1.21 1.14 1.11 1.05 0.97 0.97 0.92 0.84 0.80 0.78 0.75 0.79 0.82 0.84 0.82 0.87 0.87 0.87 0.89 0.91 0.91 0.89 0.91
0.19 0.21 0.24 0.28 0.29 0.27 0.25 0.23 0.27 0.27 0.24 0.21 0.26 0.26 0.23 0.23 0.24 0.25 0.24 0.21 0.22 0.26 0.27 0.26 0.23 0.18 0.18 0.20 0.22 0.21 0.24 0.21 0.21 0.28 0.39 0.43 0.50 0.56 0.61 0.66 0.73 0.82 0.89 0.90 0.98 1.10 1.14 1.04 1.00 1.08 1.22 1.27 1.26 1.30 1.38 1.39 1.38 1.37 1.36 1.31 1.27 1.26 1.22 1.19 1.16 1.11 1.04 0.97 0.96 0.89 0.87 0.86 0.82 0.81 0.81 0.83 0.83 0.91 0.91 0.86 0.85 0.81 0.78 0.81 0.87 0.86
0.20 0.20 0.23 0.25 0.27 0.26 0.25 0.26 0.30 0.29 0.24 0.24 0.27 0.25 0.21 0.23 0.23 0.21 0.20 0.20 0.22 0.23 0.22 0.23 0.25 0.20 0.19 0.23 0.26 0.23 0.21 0.22 0.25 0.30 0.39 0.44 0.53 0.59 0.64 0.72 0.81 0.91 0.91 0.93 0.99 1.04 1.05 1.05 1.08 1.15 1.18 1.26 1.25 1.27 1.26 1.31 1.32 1.34 1.27 1.24 1.21 1.17 1.17 1.17 1.15 1.08 1.02 0.96 0.92 0.87 0.85 0.83 0.90 0.92 0.86 0.85 0.86 0.85 0.84 0.74 0.74 0.77 0.80 0.83 0.90 0.92
0.25 0.26 0.27 0.26 0.25 0.23 0.26 0.28 0.28 0.27 0.21 0.20 0.22 0.22 0.22 0.22 0.21 0.22 0.21 0.21 0.23 0.21 0.19 0.22 0.26 0.20 0.22 0.26 0.24 0.24 0.22 0.22 0.26 0.36 0.46 0.44 0.54 0.64 0.68 0.79 0.84 0.90 0.95 1.00 1.03 1.06 1.07 1.10 1.14 1.14 1.08 1.13 1.11 1.16 1.20 1.22 1.28 1.29 1.26 1.20 1.14 1.12 1.14 1.13 1.11 1.07 1.01 0.97 0.95 0.89 0.92 0.95 0.95 0.93 0.90 0.85 0.80 0.77 0.72 0.72 0.77 0.80 0.82 0.87 0.90 0.93
0.27 0.34 0.32 0.27 0.25 0.26 0.27 0.27 0.27 0.26 0.22 0.24 0.23 0.22 0.22 0.22 0.20 0.22 0.22 0.22 0.21 0.18 0.21 0.24 0.27 0.25 0.20 0.25 0.25 0.24 0.26 0.24 0.27 0.39 0.49 0.56 0.62 0.66 0.74 0.83 0.84 0.89 0.96 1.00 1.03 1.06 1.05 1.07 1.11 1.04 1.07 1.06 1.04 0.97 0.97 1.08 1.21 1.27 1.21 1.13 1.05 1.05 1.08 1.08 1.06 1.03 0.97 0.96 0.94 0.94 1.01 1.01 0.96 0.92 0.85 0.77 0.73 0.68 0.71 0.74 0.75 0.78 0.81 0.86 0.91 0.92
0.26 0.29 0.28 0.28 0.29 0.29 0.29 0.26 0.26 0.25 0.25 0.22 0.21 0.21 0.22 0.20 0.20 0.19 0.20 0.21 0.16 0.16 0.23 0.27 0.27 0.29 0.20 0.25 0.30 0.35 0.37 0.39 0.35 0.39 0.49 0.54 0.59 0.67 0.78 0.88 0.89 0.96 1.00 1.01 1.03 1.04 1.06 1.03 1.00 1.07 1.07 1.04 1.03 1.02 0.98 1.03 1.15 1.21 1.18 1.16 1.10 1.06 1.06 1.04 1.01 0.98 0.94 0.93 0.97 1.00 1.01 1.00 0.96 0.90 0.79 0.70 0.65 0.66 0.72 0.72 0.72 0.76 0.81 0.85 0.87 0.88
0.23 0.24 0.27 0.28 0.31 0.29 0.27 0.22 0.23 0.23 0.24 0.21 0.20 0.21 0.18 0.18 0.19 0.15 0.17 0.15 0.14 0.15 0.21 0.25 0.27 0.26 0.24 0.30 0.39 0.38 0.41 0.44 0.44 0.43 0.49 0.57 0.63 0.70 0.79 0.88 0.89 0.97 0.99 0.99 1.00 1.00 1.00 0.93 0.93 1.03 1.05 1.04 0.99 1.00 0.96 1.01 1.07 1.09 1.12 1.10 1.04 1.03 1.05 1.02 0.99 0.95 0.96 0.98 0.99 0.99 0.99 1.00 0.96 0.88 0.78 0.72 0.65 0.69 0.71 0.71 0.74 0.79 0.82 0.88 0.86 0.81
0.22 0.23 0.25 0.26 0.27 0.28 0.26 0.20 0.18 0.18 0.22 0.23 0.20 0.19 0.17 0.15 0.16 0.16 0.14 0.14 0.15 0.17 0.21 0.22 0.26 0.22 0.31 0.37 0.41 0.42 0.46 0.53 0.52 0.52 0.52 0.57 0.65 0.75 0.84 0.89 0.96 1.00 0.95 0.92 0.96 1.02 1.04 0.96 0.97 1.02 1.05 1.04 1.03 1.08 0.99 0.97 1.00 1.02 1.05 1.05 1.02 1.00 1.02 0.99 0.97 0.95 0.94 0.94 0.98 1.00 0.98 0.99 0.95 0.87 0.85 0.81 0.70 0.74 0.76 0.79 0.82 0.84 0.86 0.87 0.86 0.81
0.18 0.18 0.21 0.22 0.20 0.26 0.24 0.22 0.22 0.22 0.24 0.24 0.26 0.22 0.18 0.19 0.18 0.15 0.16 0.13 0.13 0.16 0.18 0.20 0.20 0.23 0.24 0.38 0.48 0.48 0.52 0.56 0.62 0.67 0.64 0.67 0.73 0.82 0.88 0.91 0.95 0.98 0.94 0.94 0.93 0.93 0.98 0.99 1.03 1.06 1.12 1.11 1.11 1.08 1.05 1.00 1.00 1.02 1.02 1.02 1.01 0.98 1.00 0.98 0.94 0.93 0.92 0.94 0.98 0.97 1.01 0.99 0.97 0.89 0.90 0.84 0.81 0.84 0.83 0.90 0.88 0.87 0.89 0.89 0.89 0.85
0.20 0.20 0.24 0.25 0.23 0.25 0.23 0.24 0.23 0.24 0.25 0.27 0.25 0.24 0.21 0.20 0.24 0.18 0.24 0.20 0.20 0.18 0.16 0.21 0.23 0.32 0.31 0.53 0.55 0.54 0.57 0.59 0.62 0.70 0.72 0.72 0.75 0.82 0.85 0.86 0.92 0.96 0.97 0.96 0.94 0.96 1.02 1.04 1.07 1.12 1.13 1.15 1.14 1.09 1.06 1.02 1.03 1.03 1.05 1.07 1.04 0.98 0.96 0.95 0.93 0.93 0.94 0.95 0.99 0.99 1.01 1.01 0.98 0.93 0.92 0.88 0.90 0.93 0.92 0.91 0.89 0.90 0.92 0.93 0.90 0.87
0.22 0.20 0.26 0.26 0.27 0.25 0.24 0.25 0.23 0.26 0.20 0.29 0.24 0.19 0.21 0.27 0.26 0.23 0.24 0.26 0.25 0.22 0.19 0.28 0.28 0.34 0.44 0.48 0.53 0.51 0.51 0.56 0.62 0.67 0.69 0.69 0.72 0.76 0.78 0.79 0.79 0.81 0.85 0.90 0.96 1.01 1.08 1.10 1.11 1.12 1.12 1.12 1.14 1.11 1.08 1.07 1.08 1.09 1.08 1.02 0.99 1.00 0.99 0.96 0.95 0.94 0.97 0.95 0.97 0.98 1.03 1.04 0.98 0.94 0.92 0.89 0.91 0.94 0.95 0.94 0.91 0.88 0.90 0.91 0.87 0.86
0.22 0.24 0.28 0.29 0.25 0.26 0.28 0.26 0.25 0.28 0.27 0.26 0.21 0.22 0.23 0.25 0.30 0.26 0.22 0.24 0.22 0.19 0.22 0.26 0.26 0.29 0.31 0.30 0.49 0.49 0.49 0.52 0.58 0.63 0.65 0.68 0.70 0.68 0.71 0.73 0.75 0.77 0.86 0.96 1.03 1.10 1.16 1.19 1.17 1.15 1.15 1.15 1.12 1.12 1.12 1.11 1.11 1.08 1.08 1.04 1.01 1.04 1.00 1.00 0.99 0.96 0.97 0.97 0.99 1.02 1.03 1.04 1.00 0.97 0.93 0.95 0.95 0.96 0.93 0.93 0.93 0.92 0.89 0.84 0.84 0.82
0.25 0.20 0.25 0.28 0.30 0.32 0.30 0.26 0.23 0.25 0.27 0.26 0.27 0.31 0.21 0.19 0.18 0.28 0.27 0.21 0.20 0.19 0.21 0.25 0.31 0.33 0.34 0.34 0.45 0.48 0.47 0.53 0.58 0.62 0.62 0.65 0.70 0.69 0.70 0.75 0.80 0.83 0.87 0.93 0.95 1.03 1.11 1.18 1.12 1.12 1.13 1.13 1.13 1.14 1.14 1.12 1.12 1.10 1.11 1.12 1.09 1.02 1.04 1.04 1.05 1.02 1.00 1.02 1.05 1.06 1.05 1.04 1.03 1.01 0.98 1.00 1.00 0.97 0.92 0.91 0.92 0.92 0.90 0.85 0.80 0.72
0.29 0.22 0.24 0.30 0.30 0.35 0.35 0.26 0.20 0.21 0.24 0.27 0.31 0.31 0.34 0.27 0.24 0.23 0.25 0.27 0.26 0.24 0.22 0.25 0.31 0.28 0.43 0.43 0.51 0.48 0.59 0.57 0.56 0.58 0.62 0.70 0.76 0.80 0.81 0.80 0.82 0.86 0.84 0.81 0.87 0.96 1.13 1.13 1.14 1.14 1.13 1.11 1.11 1.12 1.13 1.14 1.12 1.09 1.10 1.09 1.06 1.05 1.07 1.12 1.09 1.05 1.03 1.08 1.09 1.08 1.08 1.06 1.07 1.04 1.00 1.02 0.99 0.94 0.91 0.91 0.91 0.92 0.87 0.80 0.74 0.69
0.25 0.28 0.22 0.29 0.33 0.34 0.27 0.27 0.23 0.24 0.22 0.21 0.23 0.27 0.30 0.28 0.35 0.29 0.32 0.28 0.25 0.24 0.25 0.26 0.24 0.34 0.45 0.56 0.59 0.57 0.64 0.65 0.62 0.59 0.63 0.70 0.76 0.80 0.83 0.85 0.88 0.87 0.88 0.95 0.98 1.01 1.03 1.09 1.10 1.13 1.15 1.12 1.13 1.12 1.11 1.11 1.10 1.12 1.16 1.14 1.11 1.06 1.07 1.09 1.12 1.09 1.07 1.10 1.10 1.09 1.06 1.05 1.06 1.03 1.03 1.03 0.99 0.91 0.91 0.91 0.91 0.89 0.82 0.78 0.72 0.69
0.27 0.26 0.22 0.28 0.29 0.29 0.32 0.36 0.35 0.32 0.30 0.26 0.25 0.22 0.24 0.26 0.26 0.22 0.23 0.32 0.30 0.26 0.24 0.23 0.23 0.36 0.49 0.65 0.67 0.63 0.67 0.67 0.68 0.66 0.66 0.70 0.77 0.82 0.83 0.87 0.91 0.93 0.97 1.00 1.01 1.04 1.09 1.09 1.10 1.09 1.11 1.09 1.05 1.01 1.01 1.11 1.15 1.16 1.16 1.16 1.15 1.14 1.11 1.08 1.08 1.09 1.10 1.10 1.10 1.08 1.07 1.09 1.10 1.07 1.04 1.02 0.96 0.92 0.92 0.88 0.88 0.83 0.78 0.72 0.70 0.68
0.37 0.35 0.26 0.24 0.28 0.30 0.37 0.40 0.38 0.36 0.34 0.31 0.27 0.25 0.26 0.28 0.29 0.28 0.22 0.28 0.31 0.31 0.33 0.31 0.28 0.37 0.55 0.66 0.72 0.68 0.68 0.70 0.71 0.71 0.69 0.72 0.78 0.84 0.87 0.92 0.96 0.96 0.97 1.02 1.04 1.06 1.06 1.07 1.07 1.08 1.07 1.05 1.03 1.02 1.01 1.04 1.08 1.09 1.14 1.15 1.12 1.07 1.09 1.12 1.13 1.13 1.13 1.13 1.13 1.12 1.14 1.14 1.13 1.11 1.08 1.03 0.99 0.94 0.91 0.89 0.85 0.78 0.70 0.72 0.70 0.71
0.42 0.33 0.27 0.25 0.31 0.35 0.38 0.41 0.40 0.40 0.36 0.31 0.35 0.37 0.33 0.31 0.27 0.26 0.26 0.30 0.29 0.32 0.28 0.29 0.27 0.38 0.56 0.69 0.72 0.73 0.75 0.77 0.77 0.74 0.71 0.72 0.76 0.82 0.87 0.92 0.93 0.95 0.98 1.00 1.01 1.02 1.03 1.04 1.04 1.04 1.02 1.03 1.00 0.99 0.99 1.04 1.07 1.09 1.12 1.10 1.08 1.05 1.11 1.17 1.16 1.15 1.19 1.18 1.15 1.14 1.12 1.11 1.11 1.09 1.07 1.02 1.02 0.95 0.93 0.90 0.85 0.77 0.71 0.73 0.69 0.70
0.35 0.36 0.34 0.27 0.23 0.26 0.30 0.34 0.35 0.41 0.39 0.36 0.34 0.36 0.39 0.36 0.31 0.32 0.30 0.31 0.24 0.29 0.31 0.27 0.23 0.34 0.54 0.71 0.72 0.72 0.72 0.73 0.73 0.75 0.77 0.75 0.78 0.80 0.84 0.89 0.93 0.97 0.97 0.95 0.94 0.93 0.92 0.92 0.91 0.94 0.96 0.97 0.99 1.00 1.01 1.05 1.06 1.04 1.03 1.03 1.01 1.03 1.09 1.10 1.12 1.13 1.23 1.22 1.17 1.14 1.12 1.09 1.09 1.06 1.06 1.02 1.04 0.97 0.96 0.92 0.88 0.80 0.75 0.74 0.67 0.71
0.39 0.37 0.34 0.26 0.22 0.17 0.18 0.21 0.25 0.30 0.34 0.37 0.37 0.37 0.38 0.35 0.32 0.28 0.23 0.25 0.20 0.27 0.28 0.27 0.31 0.44 0.57 0.66 0.67 0.69 0.66 0.68 0.72 0.75 0.78 0.79 0.78 0.79 0.84 0.86 0.89 0.91 0.94 0.95 0.94 0.92 0.90 0.92 0.94 0.94 0.94 0.96 0.97 0.95 0.95 0.99 1.01 0.99 0.97 0.96 0.97 0.96 0.99 1.02 1.10 1.07 1.08 1.18 1.20 1.16 1.12 1.10 1.09 1.08 1.10 1.08 1.07 1.02 0.99 0.96 0.92 0.84 0.84 0.80 0.70 0.73
0.42 0.42 0.39 0.37 0.33 0.27 0.27 0.32 0.38 0.40 0.37 0.33 0.36 0.37 0.37 0.39 0.39 0.36 0.31 0.26 0.24 0.29 0.27 0.29 0.32 0.39 0.47 0.56 0.59 0.61 0.63 0.63 0.65 0.67 0.67 0.72 0.76 0.79 0.83 0.86 0.86 0.88 0.89 0.89 0.92 0.96 0.98 0.95 0.95 0.96 1.01 0.99 0.98 1.00 1.00 1.00 1.02 1.02 0.98 0.99 1.01 1.04 1.06 1.07 1.08 1.08 1.06 1.10 1.11 1.11 1.18 1.13 1.16 1.15 1.15 1.13 1.09 1.04 1.00 0.97 0.95 0.90 0.85 0.87 0.79 0.77
0.44 0.39 0.41 0.40 0.39 0.38 0.38 0.38 0.42 0.41 0.36 0.37 0.36 0.36 0.39 0.39 0.39 0.37 0.32 0.30 0.38 0.28 0.25 0.36 0.40 0.36 0.44 0.55 0.59 0.61 0.63 0.64 0.69 0.71 0.71 0.73 0.77 0.77 0.78 0.85 0.84 0.82 0.81 0.80 0.80 0.81 0.86 0.96 0.98 0.99 1.02 1.01 1.03 1.10 1.00 0.99 0.99 1.02 1.03 1.05 1.08 1.06 1.07 1.10 1.14 1.12 1.09 1.09 1.12 1.10 1.17 1.15 1.12 1.10 1.12 1.15 1.14 1.11 1.06 1.01 0.98 0.95 0.91 0.89 0.82 0.81
0.41 0.36 0.41 0.42 0.40 0.44 0.43 0.42 0.43 0.41 0.39 0.40 0.39 0.39 0.38 0.40 0.39 0.37 0.39 0.42 0.39 0.28 0.28 0.41 0.45 0.41 0.50 0.57 0.63 0.66 0.68 0.66 0.70 0.75 0.76 0.80 0.82 0.85 0.85 0.81 0.77 0.76 0.76 0.77 0.78 0.77 0.75 0.76 0.79 0.82 0.84 0.92 0.96 0.96 1.03 1.02 0.99 0.98 0.98 1.01 1.08 1.06 1.06 1.11 1.15 1.06 1.02 1.04 1.03 1.07 1.12 1.17 1.13 1.12 1.14 1.15 1.12 1.08 1.04 1.01 1.00 0.97 0.93 0.92 0.91 0.88
0.44 0.38 0.42 0.43 0.40 0.41 0.44 0.41 0.42 0.38 0.38 0.38 0.39 0.40 0.41 0.41 0.41 0.43 0.43 0.45 0.40 0.39 0.42 0.44 0.45 0.45 0.55 0.59 0.63 0.67 0.73 0.73 0.74 0.78 0.80 0.78 0.76 0.75 0.77 0.73 0.71 0.71 0.72 0.72 0.72 0.74 0.74 0.72 0.71 0.70 0.72 0.73 0.75 0.78 0.80 0.81 0.95 0.98 0.99 1.01 1.03 1.03 1.05 1.07 1.07 1.02 1.02 1.06 1.07 1.07 1.11 1.11 1.11 1.10 1.11 1.10 1.07 1.05 1.06 1.05 1.02 0.99 0.93 0.94 0.91 0.90
0.47 0.41 0.45 0.45 0.39 0.39 0.40 0.41 0.40 0.39 0.38 0.35 0.39 0.41 0.41 0.42 0.43 0.44 0.46 0.47 0.46 0.45 0.50 0.49 0.44 0.46 0.61 0.68 0.67 0.72 0.74 0.76 0.75 0.72 0.75 0.76 0.75 0.74 0.69 0.65 0.66 0.68 0.70 0.71 0.72 0.71 0.70 0.70 0.68 0.68 0.69 0.70 0.70 0.71 0.72 0.75 0.76 0.75 0.78 0.87 0.99 0.98 0.99 0.99 0.97 1.00 1.05 1.00 1.03 1.02 1.05 1.04 1.06 1.08 1.07 1.04 1.06 1.07 1.05 1.06 1.07 1.03 0.97 0.93 0.92 0.90
0.48 0.42 0.46 0.43 0.36 0.34 0.38 0.37 0.37 0.37 0.36 0.34 0.38 0.41 0.41 0.39 0.38 0.41 0.41 0.46 0.42 0.44 0.48 0.48 0.43 0.45 0.60 0.68 0.69 0.70 0.67 0.64 0.65 0.69 0.69 0.68 0.67 0.65 0.62 0.62 0.64 0.66 0.67 0.68 0.68 0.68 0.67 0.66 0.66 0.65 0.65 0.66 0.67 0.68 0.70 0.70 0.68 0.69 0.70 0.74 0.76 0.84 0.89 0.87 0.87 0.88 0.90 0.93 0.97 0.93 0.93 0.97 0.97 0.96 0.97 0.95 0.95 1.00 0.99 1.05 1.03 1.00 0.96 0.93 0.90 0.90
0.45 0.43 0.39 0.37 0.33 0.34 0.40 0.40 0.38 0.36 0.33 0.30 0.34 0.39 0.42 0.44 0.44 0.45 0.48 0.51 0.49 0.49 0.43 0.40 0.46 0.59 0.62 0.66 0.61 0.60 0.60 0.60 0.62 0.64 0.64 0.64 0.64 0.62 0.60 0.60 0.61 0.63 0.66 0.67 0.67 0.67 0.66 0.66 0.66 0.65 0.65 0.65 0.66 0.67 0.68 0.69 0.68 0.66 0.68 0.70 0.74 0.73 0.72 0.72 0.72 0.72 0.71 0.73 0.74 0.75 0.94 1.03 0.99 0.95 0.94 0.93 0.93 0.93 0.94 1.06 0.99 0.96 0.93 0.91 0.94 0.93
0.41 0.39 0.39 0.44 0.34 0.33 0.39 0.37 0.38 0.31 0.24 0.27 0.46 0.50 0.48 0.42 0.42 0.39 0.42 0.46 0.51 0.52 0.49 0.55 0.58 0.65 0.65 0.61 0.58 0.57 0.58 0.59 0.61 0.63 0.66 0.63 0.60 0.59 0.59 0.60 0.61 0.64 0.66 0.68 0.69 0.68 0.68 0.69 0.69 0.69 0.68 0.67 0.68 0.70 0.70 0.71 0.69 0.68 0.68 0.70 0.71 0.71 0.70 0.70 0.69 0.68 0.67 0.68 0.69 0.69 0.70 0.72 0.77 0.87 0.97 1.01 0.98 0.95 0.93 0.95 0.95 0.95 0.95 0.94 0.94 0.92
0.37 0.37 0.35 0.40 0.36 0.34 0.38 0.36 0.30 0.24 0.26 0.44 0.50 0.53 0.53 0.50 0.48 0.45 0.47 0.50 0.51 0.53 0.56 0.55 0.56 0.59 0.62 0.61 0.61 0.62 0.63 0.63 0.63 0.62 0.63 0.65 0.64 0.62 0.61 0.61 0.63 0.65 0.65 0.66 0.67 0.69 0.71 0.71 0.72 0.72 0.71 0.72 0.72 0.74 0.73 0.71 0.70 0.70 0.69 0.69 0.68 0.70 0.71 0.70 0.70 0.69 0.68 0.68 0.69 0.70 0.70 0.70 0.72 0.72 0.72 0.75 0.78 0.88 0.91 0.91 0.87 0.85 0.85 0.84 0.87 0.89
0.38 0.36 0.37 0.35 0.36 0.36 0.31 0.31 0.21 0.24 0.42 0.47 0.47 0.52 0.54 0.55 0.52 0.48 0.45 0.51 0.53 0.52 0.51 0.47 0.53 0.55 0.56 0.57 0.59 0.60 0.59 0.61 0.63 0.65 0.65 0.66 0.66 0.64 0.63 0.63 0.64 0.64 0.64 0.65 0.64 0.65 0.68 0.70 0.72 0.73 0.74 0.75 0.75 0.75 0.77 0.74 0.74 0.71 0.69 0.69 0.69 0.70 0.72 0.72 0.72 0.71 0.71 0.70 0.70 0.70 0.70 0.69 0.68 0.67 0.66 0.67 0.68 0.69 0.68 0.70 0.79 0.86 0.88 0.81 0.79 0.83
0.42 0.43 0.40 0.33 0.40 0.27 0.29 0.28 0.27 0.39 0.38 0.41 0.43 0.45 0.48 0.44 0.45 0.44 0.38 0.44 0.52 0.54 0.54 0.49 0.51 0.53 0.55 0.57 0.58 0.57 0.56 0.55 0.52 0.54 0.61 0.63 0.64 0.64 0.63 0.62 0.63 0.63 0.63 0.65 0.66 0.67 0.69 0.69 0.69 0.70 0.72 0.75 0.75 0.74 0.74 0.74 0.75 0.74 0.69 0.67 0.68 0.71 0.72 0.71 0.70 0.70 0.68 0.67 0.66 0.65 0.63 0.63 0.62 0.62 0.63 0.65 0.66 0.66 0.66 0.66 0.67 0.69 0.71 0.75 0.82 0.81
0.43 0.35 0.40 0.33 0.33 0.36 0.29 0.27 0.28 0.26 0.23 0.33 0.42 0.49 0.52 0.52 0.53 0.54 0.49 0.42 0.54 0.55 0.57 0.53 0.50 0.51 0.53 0.55 0.55 0.55 0.55 0.49 0.44 0.46 0.54 0.57 0.60 0.60 0.61 0.62 0.63 0.63 0.64 0.65 0.66 0.66 0.66 0.66 0.67 0.68 0.67 0.67 0.67 0.70 0.72 0.71 0.71 0.70 0.70 0.68 0.68 0.69 0.69 0.68 0.67 0.66 0.65 0.64 0.63 0.62 0.61 0.60 0.59 0.59 0.59 0.59 0.59 0.61 0.63 0.65 0.66 0.67 0.70 0.69 0.68 0.66
0.41 0.42 0.40 0.35 0.33 0.33 0.30 0.25 0.25 0.22 0.28 0.40 0.42 0.47 0.52 0.57 0.56 0.56 0.44 0.35 0.49 0.53 0.56 0.53 0.48 0.49 0.51 0.52 0.52 0.52 0.48 0.42 0.42 0.48 0.55 0.57 0.57 0.58 0.57 0.57 0.58 0.60 0.61 0.61 0.61 0.61 0.63 0.64 0.63 0.63 0.63 0.62 0.61 0.63 0.65 0.67 0.68 0.69 0.69 0.68 0.68 0.69 0.67 0.66 0.66 0.66 0.65 0.64 0.64 0.64 0.63 0.62 0.61 0.61 0.61 0.61 0.60 0.59 0.59 0.59 0.61 0.64 0.67 0.68 0.69 0.70
0.36 0.36 0.35 0.32 0.31 0.32 0.29 0.27 0.25 0.31 0.29 0.39 0.44 0.46 0.48 0.55 0.55 0.47 0.29 0.31 0.49 0.55 0.56 0.53 0.50 0.53 0.52 0.52 0.51 0.49 0.44 0.39 0.42 0.48 0.55 0.57 0.58 0.58 0.57 0.57 0.56 0.54 0.54 0.57 0.59 0.60 0.60 0.61 0.62 0.60 0.58 0.57 0.58 0.61 0.64 0.65 0.64 0.64 0.65 0.66 0.67 0.67 0.67 0.67 0.67 0.67 0.66 0.65 0.64 0.63 0.64 0.63 0.62 0.60 0.60 0.60 0.60 0.60 0.60 0.60 0.59 0.59 0.60 0.61 0.62 0.61
0.33 0.34 0.35 0.29 0.32 0.33 0.31 0.29 0.32 0.33 0.41 0.43 0.43 0.46 0.46 0.49 0.49 0.32 0.25 0.38 0.50 0.52 0.54 0.54 0.53 0.54 0.53 0.51 0.50 0.44 0.47 0.48 0.49 0.53 0.56 0.57 0.57 0.57 0.59 0.60 0.59 0.54 0.51 0.52 0.53 0.57 0.59 0.57 0.57 0.57 0.56 0.56 0.57 0.57 0.58 0.57 0.57 0.57 0.57 0.58 0.58 0.58 0.59 0.61 0.61 0.60 0.60 0.59 0.58 0.58 0.57 0.56 0.55 0.54 0.54 0.55 0.56 0.56 0.56 0.55 0.54 0.53 0.51 0.49 0.48 0.48
0.32 0.33 0.34 0.33 0.30 0.29 0.32 0.29 0.29 0.33 0.41 0.45 0.46 0.46 0.47 0.41 0.29 0.28 0.44 0.54 0.51 0.49 0.52 0.51 0.49 0.49 0.49 0.49 0.49 0.48 0.49 0.51 0.51 0.51 0.50 0.49 0.49 0.50 0.51 0.52 0.52 0.50 0.50 0.48 0.48 0.51 0.54 0.57 0.56 0.55 0.55 0.56 0.56 0.55 0.55 0.53 0.51 0.51 0.50 0.51 0.51 0.53 0.56 0.56 0.56 0.55 0.55 0.54 0.54 0.53 0.52 0.52 0.52 0.52 0.51 0.51 0.50 0.50 0.50 0.51 0.50 0.50 0.49 0.49 0.47 0.45
0.29 0.28 0.28 0.28 0.32 0.32 0.31 0.27 0.26 0.22 0.38 0.45 0.45 0.43 0.47 0.35 0.38 0.47 0.50 0.52 0.53 0.51 0.50 0.49 0.49 0.49 0.49 0.47 0.48 0.48 0.47 0.48 0.48 0.48 0.49 0.49 0.49 0.47 0.46 0.47 0.46 0.47 0.48 0.49 0.47 0.47 0.50 0.51 0.52 0.52 0.55 0.57 0.56 0.54 0.54 0.52 0.51 0.51 0.52 0.51 0.51 0.53 0.53 0.53 0.53 0.52 0.52 0.51 0.49 0.49 0.48 0.48 0.47 0.46 0.46 0.46 0.45 0.43 0.41 0.41 0.41 0.42 0.42 0.42 0.41 0.42
0.33 0.28 0.29 0.31 0.34 0.26 0.26 0.23 0.25 0.36 0.42 0.47 0.43 0.35 0.44 0.47 0.52 0.52 0.50 0.48 0.51 0.51 0.49 0.48 0.49 0.50 0.50 0.49 0.48 0.48 0.48 0.48 0.48 0.49 0.49 0.49 0.47 0.46 0.46 0.47 0.47 0.47 0.49 0.50 0.48 0.47 0.48 0.49 0.49 0.51 0.54 0.54 0.54 0.55 0.56 0.55 0.53 0.53 0.52 0.52 0.53 0.52 0.52 0.51 0.50 0.49 0.48 0.46 0.45 0.44 0.43 0.43 0.42 0.42 0.42 0.41 0.41 0.41 0.39 0.38 0.38 0.37 0.37 0.38 0.38 0.38
0.34 0.29 0.30 0.25 0.34 0.29 0.28 0.33 0.40 0.45 0.46 0.48 0.48 0.47 0.49 0.52 0.54 0.54 0.53 0.52 0.50 0.51 0.53 0.50 0.49 0.51 0.51 0.51 0.50 0.49 0.48 0.49 0.49 0.50 0.47 0.46 0.46 0.46 0.46 0.46 0.46 0.46 0.46 0.47 0.47 0.46 0.47 0.47 0.46 0.50 0.49 0.48 0.50 0.51 0.52 0.51 0.48 0.47 0.47 0.49 0.50 0.50 0.49 0.48 0.46 0.45 0.43 0.42 0.41 0.41 0.40 0.40 0.40 0.40 0.40 0.40 0.39 0.37 0.36 0.36 0.36 0.35 0.35 0.35 0.34 0.33
0.33 0.34 0.34 0.31 0.28 0.35 0.37 0.38 0.40 0.41 0.44 0.47 0.50 0.52 0.50 0.51 0.54 0.54 0.53 0.51 0.53 0.54 0.54 0.52 0.51 0.51 0.51 0.51 0.48 0.48 0.48 0.47 0.48 0.47 0.47 0.47 0.46 0.47 0.48 0.48 0.48 0.48 0.49 0.49 0.47 0.44 0.44 0.45 0.46 0.45 0.42 0.44 0.46 0.47 0.48 0.48 0.47 0.43 0.43 0.46 0.45 0.44 0.44 0.43 0.42 0.41 0.41 0.41 0.41 0.40 0.40 0.39 0.39 0.39 0.39 0.38 0.38 0.37 0.37 0.36 0.36 0.35 0.35 0.35 0.34 0.33
0.26 0.31 0.29 0.24 0.31 0.27 0.23 0.35 0.35 0.35 0.38 0.40 0.41 0.47 0.50 0.51 0.51 0.53 0.53 0.53 0.54 0.55 0.56 0.56 0.54 0.52 0.51 0.51 0.49 0.48 0.48 0.48 0.47 0.47 0.48 0.48 0.47 0.47 0.49 0.49 0.49 0.49 0.47 0.46 0.44 0.43 0.43 0.44 0.44 0.41 0.42 0.42 0.44 0.45 0.45 0.44 0.44 0.44 0.44 0.43 0.44 0.43 0.43 0.42 0.41 0.40 0.39 0.39 0.39 0.39 0.39 0.38 0.37 0.37 0.37 0.37 0.38 0.38 0.37 0.37 0.37 0.36 0.35 0.35 0.34 0.33
0.21 0.28 0.27 0.28 0.27 0.25 0.26 0.31 0.33 0.34 0.34 0.36 0.38 0.38 0.40 0.44 0.46 0.48 0.49 0.50 0.52 0.54 0.54 0.54 0.55 0.52 0.52 0.50 0.50 0.48 0.47 0.48 0.46 0.46 0.47 0.46 0.47 0.49 0.50 0.50 0.50 0.49 0.49 0.46 0.43 0.39 0.42 0.42 0.42 0.42 0.41 0.40 0.43 0.44 0.43 0.43 0.43 0.43 0.43 0.44 0.44 0.43 0.42 0.41 0.40 0.39 0.39 0.39 0.39 0.39 0.39 0.38 0.38 0.38 0.37 0.37 0.37 0.36 0.35 0.37 0.38 0.36 0.36 0.36 0.36 0.34
0.25 0.28 0.23 0.27 0.25 0.30 0.33 0.33 0.32 0.33 0.33 0.33 0.34 0.34 0.35 0.37 0.40 0.41 0.44 0.45 0.45 0.45 0.46 0.47 0.48 0.47 0.47 0.46 0.48 0.47 0.46 0.45 0.43 0.43 0.43 0.45 0.47 0.48 0.49 0.49 0.49 0.46 0.44 0.41 0.40 0.42 0.42 0.44 0.42 0.41 0.40 0.41 0.43 0.43 0.42 0.41 0.43 0.44 0.43 0.43 0.43 0.43 0.41 0.39 0.39 0.39 0.39 0.39 0.39 0.39 0.39 0.39 0.38 0.38 0.37 0.36 0.36 0.37 0.37 0.36 0.36 0.36 0.37 0.39 0.40 0.39
0.22 0.21 0.26 0.25 0.22 0.23 0.23 0.27 0.31 0.25 0.25 0.30 0.33 0.35 0.36 0.38 0.38 0.38 0.40 0.39 0.40 0.40 0.41 0.41 0.41 0.42 0.41 0.41 0.42 0.43 0.42 0.42 0.41 0.40 0.41 0.43 0.44 0.45 0.45 0.45 0.43 0.41 0.40 0.41 0.43 0.45 0.45 0.44 0.42 0.41 0.40 0.42 0.43 0.42 0.42 0.43 0.43 0.44 0.44 0.44 0.43 0.43 0.41 0.40 0.39 0.38 0.38 0.39 0.38 0.38 0.38 0.37 0.37 0.36 0.36 0.36 0.35 0.35 0.36 0.40 0.39 0.39 0.37 0.37 0.40 0.42
0.20 0.24 0.25 0.22 0.22 0.23 0.31 0.33 0.34 0.34 0.33 0.34 0.34 0.34 0.36 0.37 0.36 0.35 0.35 0.36 0.37 0.38 0.38 0.38 0.37 0.37 0.38 0.38 0.39 0.38 0.37 0.36 0.36 0.36 0.36 0.38 0.38 0.39 0.40 0.38 0.37 0.36 0.35 0.37 0.39 0.41 0.41 0.40 0.40 0.40 0.39 0.40 0.41 0.41 0.42 0.42 0.43 0.43 0.43 0.43 0.43 0.42 0.40 0.39 0.38 0.37 0.36 0.36 0.36 0.36 0.36 0.35 0.35 0.36 0.37 0.37 0.36 0.36 0.34 0.34 0.37 0.40 0.40 0.40 0.40 0.41
Wind_Speed
15 15 17 17 17 17 18 19 20 19 18 18 18 18 18 18 17 17 16 16 17 18 20 21 20 20 19 16 17 18 16 17 21 22 20 19 18 18 18 17 18 17 15 14 14 15 16 16 17 17 17 17 17 17 16 15 14 13 14 14 13 13 13 12 11 11 10 10 9 9 9 7 7 6 5 4 4 3 3 2 2 2 1 1 0 0
14 16 17 17 17 17 18 18 19 19 19 19 18 18 19 18 17 17 16 16 16 16 19 21 20 20 18 17 17 17 15 14 18 22 20 18 17 17 18 18 18 17 15 14 14 15 16 17 18 17 17 16 15 15 13 13 12 12 14 14 13 13 13 12 12 11 10 10 9 9 9 8 7 6 5 5 4 3 3 2 2 2 1 1 0 0
15 16 16 16 16 17 18 18 18 18 18 18 18 18 18 17 16 14 14 16 15 15 17 20 20 19 17 17 18 17 15 13 16 20 20 19 18 18 18 18 17 16 16 15 15 15 16 16 16 16 15 13 12 11 10 10 11 11 13 13 13 12 12 12 12 11 11 10 9 9 9 8 7 6 5 5 4 3 3 2 2 2 1 1 1 1
14 14 14 15 15 16 17 17 17 17 17 17 17 17 17 16 14 11 11 12 13 14 15 19 19 17 16 17 18 17 16 16 18 19 19 21 20 19 20 19 18 17 16 16 15 15 14 13 12 12 13 12 10 8 8 10 11 11 13 14 13 12 12 12 12 12 11 10 10 10 9 8 7 6 5 4 4 4 3 3 2 2 2 1 1 1
15 14 13 13 14 16 17 17 17 17 17 17 17 17 16 16 15 12 10 8 9 11 13 15 14 14 14 15 16 17 16 17 19 18 17 20 20 19 19 19 18 17 16 15 14 13 13 12 9 9 11 11 10 10 10 11 12 12 13 14 13 13 12 13 13 12 11 11 10 10 9 8 7 6 5 5 5 4 4 3 2 2 2 2 2 2
15 15 14 14 15 15 16 17 17 16 15 16 17 17 17 17 16 14 11 7 5 8 12 13 12 13 13 13 14 15 16 17 18 17 17 19 20 19 18 18 17 16 14 13 13 13 13 12 10 10 11 11 10 11 12 13 13 13 14 14 14 13 13 13 13 12 12 11 11 10 9 8 8 7 6 6 5 4 4 3 3 3 2 1 2 2
13 14 14 15 16 16 15 15 16 16 15 15 15 15 16 18 16 14 13 10 7 9 13 14 13 13 13 13 14 15 16 18 18 17 16 18 19 19 18 17 17 14 12 13 13 13 13 12 11 11 11 10 10 11 12 13 13 14 14 14 14 13 13 13 13 13 13 12 11 10 9 9 8 7 7 6 6 5 4 3 3 3 2 2 2 2
13 14 15 15 15 15 15 15 15 14 14 15 15 15 16 17 16 14 13 13 11 10 12 14 14 14 14 15 16 16 15 15 17 17 16 18 18 17 17 17 15 14 14 14 13 13 13 12 11 11 10 10 10 10 11 12 12 13 14 14 14 13 13 13 13 12 13 12 11 11 10 9 8 7 7 7 6 5 4 4 3 3 3 3 2 2
13 14 15 15 15 14 14 14 13 12 12 13 14 15 17 17 17 15 13 14 12 11 13 14 13 12 14 16 17 18 17 15 16 18 17 17 18 17 17 15 14 14 14 13 12 12 13 12 11 12 11 10 11 11 12 12 12 13 14 14 14 14 13 13 13 12 12 12 12 11 10 9 8 7 7 7 6 5 5 4 4 3 3 3 2 2
12 13 14 15 15 13 12 12 12 12 12 12 13 14 15 16 17 15 14 13 12 12 14 14 12 11 12 14 13 14 17 17 17 17 17 17 17 18 16 14 14 14 14 13 13 13 13 12 12 13 12 12 12 13 12 11 11 12 13 14 14 14 13 13 13 13 12 11 11 11 10 9 8 8 7 7 6 5 5 4 4 4 3 3 3 2
13 12 13 14 14 13 12 12 12 13 12 12 12 13 13 15 15 15 15 14 11 12 13 13 12 11 11 12 12 11 14 17 18 17 16 17 17 16 14 13 13 14 14 13 13 13 12 12 12 11 12 14 13 12 12 11 12 12 12 12 13 13 13 13 13 12 11 11 10 10 11 10 9 8 7 7 6 6 5 4 4 4 4 4 4 3
16 14 12 12 13 13 12 12 12 12 13 12 11 12 12 12 12 13 15 15 13 12 12 12 12 12 12 12 12 12 11 12 16 18 17 17 16 14 13 12 13 13 13 13 12 12 12 12 12 11 13 14 13 12 11 11 13 13 12 11 12 13 13 13 13 12 11 10 10 10 11 10 8 7 7 7 7 6 6 5 4 4 5 4 5 4
16 16 13 12 12 12 12 13 13 12 12 12 12 12 12 10 8 11 14 16 15 13 13 13 12 13 13 12 12 12 9 8 14 18 18 17 14 12 12 12 12 12 13 13 12 12 12 13 13 14 15 15 14 12 10 10 12 13 12 11 11 12 12 13 12 11 10 10 10 10 10 10 9 8 8 8 7 6 6 5 5 5 5 6 6 5
12 15 16 13 12 12 12 13 13 12 11 13 14 13 11 10 8 9 11 13 14 14 15 14 13 12 12 11 10 11 10 9 11 15 17 17 14 12 11 12 12 12 11 12 12 12 12 13 14 15 16 15 13 12 11 11 12 13 13 12 11 11 11 12 12 11 11 10 10 10 10 10 9 9 9 8 8 7 6 6 6 6 6 6 6 5
11 13 15 14 13 13 13 14 14 12 10 12 14 13 12 11 11 10 9 11 12 12 13 14 13 12 11 11 10 10 10 10 10 11 13 14 13 11 10 11 11 10 10 12 12 12 12 13 14 15 15 15 13 11 11 11 11 13 13 12 12 11 11 12 12 12 11 10 10 10 10 10 9 9 9 9 8 7 7 6 6 6 7 6 5 4
13 13 14 15 15 14 13 14 15 13 10 10 12 13 14 13 12 11 9 10 10 8 9 11 11 11 12 11 11 10 9 8 9 10 11 13 13 11 10 11 10 9 10 12 13 13 13 14 15 15 15 15 14 12 11 11 11 13 13 12 13 12 12 12 12 12 11 10 10 10 10 10 9 8 9 9 8 8 7 6 6 6 6 6 5 5
13 13 12 13 16 16 14 13 15 15 11 9 10 13 15 13 12 11 10 9 8 7 9 10 10 10 11 10 10 10 9 9 9 9 10 11 12 11 11 11 10 9 9 10 12 12 14 15 15 15 15 14 14 12 12 12 12 13 12 12 13 12 12 13 12 12 11 11 10 10 10 9 9 8 9 9 9 8 7 6 6 6 7 6 6 6
13 14 12 11 13 15 15 14 14 16 13 10 10 11 12 11 11 11 10 8 8 9 10 10 11 10 10 10 10 9 9 10 10 10 9 9 10 11 11 10 9 8 7 9 10 11 13 14 14 14 14 14 13 12 12 13 13 13 12 12 13 12 12 12 13 12 12 11 10 10 10 9 9 9 9 9 9 8 8 7 7 7 7 7 6 6
13 13 13 12 12 11 13 15 15 15 15 13 11 10 9 10 10 11 11 10 9 10 9 8 10 9 9 11 11 10 11 11 11 9 9 9 9 10 11 11 9 8 8 9 9 10 13 13 12 13 13 13 12 12 11 12 13 13 12 12 13 13 11 11 12 13 12 11 10 10 10 10 10 9 9 9 9 9 8 8 7 7 6 6 6 6
15 13 12 13 12 10 10 14 15 14 14 15 13 10 10 10 11 11 11 11 10 10 9 7 9 10 10 11 12 11 11 11 11 10 9 9 9 9 10 11 11 10 10 10 10 11 12 10 11 12 12 12 11 11 11 11 12 12 12 12 13 13 11 11 12 13 12 12 11 11 11 11 11 10 10 9 9 9 9 9 8 8 7 6 5 6
16 15 14 13 12 12 11 12 13 12 12 14 15 13 11 10 11 11 12 12 10 9 10 9 10 11 11 11 11 11 10 10 10 10 9 9 9 9 10 11 11 11 10 11 12 12 11 8 9 11 11 11 11 11 11 11 11 11 12 12 12 12 12 12 12 13 13 13 13 13 12 12 12 11 11 10 10 10 10 9 9 8 7 6 6 6
14 16 16 14 12 13 12 11 11 10 10 12 14 15 13 12 11 11 12 12 11 9 10 10 10 11 12 11 11 11 11 9 9 9 9 9 9 9 9 9 11 11 10 10 11 11 10 9 9 9 10 11 11 10 11 10 10 11 11 12 13 12 12 13 12 13 13 13 13 13 13 13 13 13 13 12 11 10 9 9 9 8 7 6 6 6
14 14 15 16 15 15 13 11 10 10 9 10 10 11 12 12 13 13 12 13 12 9 9 9 9 10 11 11 10 11 11 10 9 9 9 9 9 9 8 8 9 10 10 10 10 10 10 9 9 10 10 10 10 10 11 11 11 12 12 12 13 13 13 13 12 13 13 14 14 14 14 14 14 14 13 13 12 11 10 9 9 8 8 7 7 7
14 12 12 14 16 16 14 11 11 9 9 10 9 8 8 10 13 14 14 14 13 12 10 9 9 11 10 9 9 9 10 9 9 8 8 9 9 9 8 8 8 9 10 9 9 10 10 9 10 10 9 9 10 10 11 11 11 12 12 12 13 12 12 13 13 13 14 15 14 14 14 14 15 14 13 12 12 12 11 10 9 9 9 8 8 8
15 13 11 11 13 15 15 13 12 11 10 10 9 9 8 8 9 11 12 12 12 13 13 10 10 12 11 10 9 9 9 9 9 8 8 8 9 9 8 8 8 8 9 8 8 9 9 9 9 9 9 9 9 10 10 10 10 10 11 11 11 12 12 12 13 13 14 14 13 14 14 14 14 13 13 12 12 12 11 10 10 10 9 8 8 8
16 15 12 11 12 15 16 15 14 14 12 11 10 8 8 8 8 10 12 11 11 12 12 11 11 11 11 11 10 10 10 10 9 8 7 8 8 8 8 8 8 7 7 7 7 7 7 8 7 7 7 8 8 9 9 9 9 9 9 10 10 11 11 11 12 12 13 14 13 13 13 13 12 12 12 12 11 11 11 10 10 10 10 9 9 9
17 16 14 13 14 15 16 16 16 15 13 11 9 8 7 8 8 9 11 11 11 12 11 13 14 13 12 11 11 11 11 11 10 9 7 7 7 8 8 8 8 7 6 6 6 6 6 6 6 5 5 6 8 8 8 7 7 7 7 8 9 9 9 10 11 11 12 13 12 12 12 12 11 11 11 11 10 10 10 10 11 11 11 11 10 10
15 16 16 15 15 15 15 16 16 16 15 13 11 9 8 8 8 8 10 11 13 12 11 13 14 13 13 13 12 12 12 11 11 9 8 8 8 8 9 8 8 7 6 5 5 4 4 4 5 4 4 4 5 6 6 6 6 6 6 7 8 8 8 9 10 10 9 10 11 11 12 12 11 11 10 11 10 10 10 10 10 10 10 11 11 10
13 15 16 16 16 15 15 14 14 15 15 15 15 13 11 10 8 8 10 12 13 12 13 14 13 11 12 12 12 13 12 13 13 11 10 11 10 9 9 8 7 6 5 5 4 3 3 3 3 3 3 4 3 3 3 4 5 5 6 7 7 7 7 7 8 8 8 9 10 10 11 11 10 10 11 11 10 9 9 10 10 10 10 10 10 11
12 13 14 15 16 15 15 15 14 14 14 14 15 15 14 13 12 10 10 11 10 10 12 13 12 11 12 13 12 12 12 13 14 13 12 12 11 11 9 7 6 6 5 5 5 4 4 4 3 3 3 3 4 4 4 5 5 5 5 6 6 6 7 7 8 7 7 8 9 9 10 10 10 11 11 11 10 10 10 10 10 11 10 10 10 10
11 12 12 12 13 14 15 15 15 14 13 14 14 13 13 13 14 13 12 11 10 11 12 13 13 12 13 13 12 12 12 12 11 11 10 10 10 10 8 7 6 6 5 5 5 5 5 5 4 3 3 3 3 4 4 5 5 5 5 6 6 7 8 8 7 7 7 8 8 9 10 10 10 11 11 11 11 11 11 11 11 11 11 11 11 11
11 11 10 9 10 11 12 12 13 12 11 11 11 11 12 14 15 15 15 13 13 14 14 13 13 14 15 15 13 12 11 11 10 9 9 8 7 7 6 6 6 6 5 6 6 6 6 5 5 5 5 4 4 4 4 5 5 5 6 6 7 8 8 8 8 7 7 8 8 9 9 9 9 10 10 10 11 11 11 11 11 11 12 12 12 12
9 10 10 9 9 9 10 10 10 10 9 10 11 12 15 15 15 15 15 14 14 14 15 15 14 14 14 15 14 13 12 11 11 10 10 9 8 7 6 6 6 6 6 7 7 7 8 8 8 7 7 7 6 6 6 6 6 6 6 7 7 8 8 8 8 8 8 7 7 7 8 8 9 9 10 11 11 11 11 12 12 12 13 14 14 14
8 8 9 9 9 9 9 8 8 8 9 11 11 11 13 14 14 14 14 14 14 14 15 16 15 13 12 12 13 13 13 12 12 11 11 11 10 10 9 8 8 8 8 8 9 9 10 10 10 10 9 8 8 8 7 7 8 8 8 8 8 8 8 9 9 9 9 9 9 9 9 9 9 10 11 11 12 13 13 14 15 14 15 15 16 16
9 9 10 10 9 9 8 7 8 9 10 11 11 10 10 10 10 11 11 11 12 14 15 16 16 14 12 11 11 12 11 11 12 12 12 12 12 12 11 11 10 10 10 10 10 10 11 11 12 12 11 10 10 9 9 9 9 9 9 9 9 9 10 10 10 10 11 11 12 12 12 12 12 12 13 13 13 14 14 15 16 16 17 17 17 18
9 10 10 10 9 9 8 7 8 10 10 9 9 8 8 8 8 8 8 8 10 13 15 16 16 14 12 11 11 11 10 10 10 11 12 13 13 13 13 12 12 11 11 11 11 11 11 12 12 12 12 12 11 11 11 11 11 11 11 11 11 11 12 12 12 12 13 13 14 14 14 14 14 15 15 16 16 16 16 16 17 17 18 19 19 20
9 9 10 10 10 10 9 8 8 9 9 9 9 9 8 8 9 9 9 9 10 12 13 14 13 13 14 13 12 12 10 8 9 11 13 13 14 14 13 13 13 12 13 13 13 13 13 13 13 13 13 12 12 12 12 13 13 14 14 14 14 13 13 13 13 13 14 15 16 16 16 17 17 17 18 18 18 19 19 19 19 19 20 20 21 22
9 10 10 10 11 11 10 9 9 9 9 10 10 11 10 9 11 11 10 9 10 10 11 12 12 13 14 14 14 14 12 11 13 14 14 14 14 14 14 14 14 14 14 14 14 14 14 14 14 14 13 13 13 13 13 14 14 14 14 15 15 15 15 15 15 16 16 17 18 18 19 20 20 20 21 21 21 21 22 22 23 23 24 24 24 25
9 10 10 10 10 10 10 10 10 10 10 11 11 12 10 9 10 11 10 9 11 10 9 10 12 13 14 14 15 15 14 15 16 17 17 16 15 15 14 14 14 15 15 14 14 14 14 14 14 15 15 14 14 15 15 15 15 15 15 15 16 17 17 18 19 19 20 20 21 22 22 23 23 24 24 24 24 24 25 26 26 27 27 28 28 28
10 11 10 10 10 11 11 10 10 10 11 11 12 13 13 10 9 8 8 9 12 12 12 11 12 13 14 14 14 14 15 15 16 16 16 16 16 16 15 15 15 16 16 15 15 15 16 16 16 16 16 16 16 16 17 17 17 17 17 17 17 18 19 20 21 22 23 24 24 25 25 26 26 26 27 27 27 27 28 28 29 30 30 31 31 31
9 9 9 9 9 10 10 10 11 11 12 13 14 15 14 12 10 9 9 10 11 11 12 12 13 13 13 13 13 14 14 15 14 14 14 14 14 15 15 15 16 16 16 16 16 16 17 17 17 17 17 17 17 18 18 18 19 19 19 20 20 20 21 21 22 23 24 25 25 26 27 27 28 28 29 29 30 30 31 32 32 33 33 33 34 34
7 7 7 7 8 8 9 9 10 11 12 14 15 14 12 11 11 11 11 10 10 10 11 10 10 11 10 11 12 12 12 13 13 12 12 12 12 13 14 15 15 16 16 16 15 16 16 17 17 18 18 18 19 19 19 19 20 20 20 21 21 22 23 23 24 25 25 26 26 27 27 28 29 29 30 31 32 33 34 34 35 35 35 35 36 36
7 8 7 7 8 8 7 7 8 10 12 13 13 12 11 11 12 12 11 10 10 11 11 10 10 10 10 10 11 12 12 11 11 11 11 12 12 13 13 14 14 15 15 15 16 16 16 17 17 18 18 19 20 20 20 20 21 21 22 22 23 24 25 26 26 27 27 28 29 29 29 30 30 31 32 33 34 35 35 36 36 36 36 36 36 37
8 8 8 9 9 9 8 8 9 9 10 10 10 12 12 11 12 12 11 11 11 11 11 11 11 11 11 11 11 12 12 12 12 12 13 13 14 14 14 14 14 15 15 16 17 17 18 18 18 19 19 20 20 20 21 21 22 23 23 24 25 25 26 27 27 28 29 30 30 31 32 32 33 33 34 35 35 36 36 37 37 38 38 38 38 38
8 8 8 9 9 9 9 9 9 8 7 7 8 9 9 9 10 11 11 11 12 12 12 12 12 12 12 12 12 13 14 14 14 14 15 15 16 16 16 16 16 16 16 17 18 18 19 19 19 20 20 21 21 22 22 23 23 23 24 25 25 26 27 28 29 29 30 31 32 33 34 34 35 35 36 36 37 37 38 38 38 39 39 39 39 40
7 7 8 9 9 8 8 9 8 8 7 7 7 8 8 8 9 10 10 11 12 12 12 13 13 13 13 13 13 14 15 16 16 16 17 17 18 18 18 17 17 18 18 19 20 20 21 21 21 21 21 22 22 23 23 23 23 24 25 26 27 28 29 30 30 31 32 33 34 34 35 35 36 36 37 37 38 38 38 39 39 39 39 39 39 40
7 7 8 9 10 10 10 10 10 10 10 9 9 9 10 10 10 11 11 12 13 13 13 13 13 14 14 15 15 16 16 17 18 18 18 19 19 20 19 18 18 19 19 20 21 22 22 22 22 22 23 23 24 24 24 24 25 26 27 28 29 30 31 31 32 33 33 34 35 35 36 36 36 36 37 37 38 38 39 39 39 40 40 40 40 41
8 8 9 9 10 10 11 11 11 11 10 11 11 11 11 12 13 13 13 14 14 14 15 15 15 16 16 16 17 17 17 18 18 19 20 20 20 20 19 18 19 19 20 21 22 22 23 23 23 23 23 23 24 24 25 25 26 27 28 29 30 31 31 32 32 33 34 35 35 35 35 35 36 36 37 38 38 39 39 39 40 40 40 41 41 41
8 9 9 10 10 10 10 11 11 11 10 10 10 11 12 13 14 14 15 15 15 16 16 16 17 17 18 18 18 18 18 19 19 19 20 21 20 20 19 19 19 20 21 22 23 23 23 23 23 23 23 24 24 24 24 25 26 27 28 28 29 30 31 32 33 33 34 34 34 34 34 35 36 37 37 38 38 38 39 39 40 40 41 41 41 41
8 8 9 9 10 10 11 11 12 12 12 11 11 11 12 12 13 14 14 15 15 16 17 17 18 18 18 18 19 19 19 19 19 19 20 20 20 20 20 20 20 21 22 23 24 24 24 24 23 23 24 24 24 24 25 26 26 27 27 28 29 30 31 32 33 33 33 33 33 34 35 35 36 36 36 37 37 38 38 39 39 40 40 41 41 41
7 8 9 9 9 10 11 11 11 11 12 12 11 11 11 11 12 12 13 14 15 15 16 16 17 17 18 18 18 19 19 19 19 20 20 20 20 20 21 21 22 23 23 24 24 24 23 23 23 23 24 24 25 25 26 26 26 27 28 29 30 31 32 32 32 32 32 33 33 34 34 35 35 35 35 36 36 36 37 37 37 38 38 39 39 39
Wind_Direction
233 237 238 237 236 235 234 233 235 239 240 241 243 244 245 246 246 248 250 242 233 233 232 227 225 227 230 233 233 228 232 240 228 216 210 212 218 224 225 223 222 224 228 230 229 228 230 231 230 231 234 233 230 230 223 212 205 198 193 191 191 192 192 191 189 188 187 185 180 175 175 176 177 177 176 173 174 174 169 166 173 184 184 166 183 262
234 237 238 238 237 235 235 233 233 237 241 242 243 247 250 250 252 253 251 242 232 236 236 225 222 227 228 229 230 225 235 245 220 206 206 211 217 221 221 220 219 223 229 232 233 233 233 232 231 232 231 228 226 225 218 209 200 189 186 188 189 191 193 194 193 190 187 184 181 181 185 185 181 185 187 186 189 191 186 185 191 208 213 204 237 279
238 241 240 237 236 235 235 234 232 235 240 242 243 246 249 251 252 253 253 243 233 238 236 221 218 226 228 228 229 224 226 225 204 199 203 209 214 216 216 217 219 224 230 235 237 237 237 235 232 231 227 221 219 216 208 199 192 186 189 193 193 193 194 196 196 194 190 188 187 188 190 187 186 194 201 203 207 206 208 210 211 218 218 216 238 261
238 242 238 234 234 234 234 234 233 235 238 240 239 241 245 244 241 244 254 249 241 242 230 212 214 227 230 230 229 224 221 215 208 206 206 210 215 217 219 221 222 226 231 235 236 237 240 237 235 236 227 215 214 219 211 201 199 200 201 199 197 196 195 196 196 194 192 192 191 189 189 188 191 200 207 209 212 214 222 227 225 224 218 222 238 242
239 238 232 230 233 234 234 234 232 233 237 241 239 237 237 236 234 239 254 263 256 242 215 201 213 231 230 226 229 227 224 221 219 218 213 214 218 219 222 225 225 229 232 233 234 237 240 240 243 240 224 214 217 223 216 207 205 204 198 194 193 194 194 195 194 193 193 193 190 188 190 192 195 202 207 208 208 212 223 231 229 226 223 231 240 240
240 237 231 230 232 234 234 235 231 228 235 243 240 234 232 235 238 242 251 264 259 231 213 202 212 234 234 226 230 229 226 226 225 222 216 213 216 219 224 228 228 230 233 232 231 237 241 244 247 239 228 226 224 217 212 208 204 198 192 190 191 193 193 194 195 195 194 192 191 192 195 196 200 210 217 214 210 212 222 229 227 223 220 222 227 231
238 237 233 231 231 231 232 235 231 226 233 240 237 235 231 232 236 240 246 248 236 227 223 215 215 230 237 232 230 227 226 230 227 221 216 213 215 219 222 226 228 229 233 234 234 238 241 243 244 242 239 234 221 213 211 207 200 196 193 192 194 195 195 195 196 197 195 193 195 198 201 204 210 219 221 216 215 217 223 226 224 228 230 227 230 235
234 235 237 234 230 231 234 238 232 223 231 239 237 237 233 230 232 235 239 238 235 235 231 223 220 229 238 238 234 231 232 234 227 218 214 215 218 219 222 226 228 227 229 232 236 239 241 244 242 238 235 226 214 210 207 201 198 196 195 195 195 195 195 196 197 198 199 198 200 202 207 212 216 218 213 210 215 219 225 228 229 241 246 240 246 256
233 232 234 234 233 236 237 234 226 220 233 241 234 233 231 229 233 235 234 232 235 241 236 229 223 228 240 242 240 240 237 230 222 215 212 215 218 219 223 228 227 224 225 230 234 237 241 243 232 221 219 215 205 197 193 194 195 194 194 195 195 195 196 197 197 197 197 199 200 204 209 212 211 212 211 211 215 219 225 229 231 241 244 246 262 277
235 232 231 232 234 238 234 226 222 225 236 238 229 228 228 228 234 236 230 225 227 234 234 230 224 227 240 243 239 237 233 228 224 220 217 218 218 219 223 224 222 222 227 232 234 236 237 232 223 217 215 209 197 188 188 193 194 191 192 194 194 194 194 192 193 193 194 196 200 203 207 203 199 205 213 215 215 219 223 223 226 235 242 255 270 281
238 237 233 231 232 235 235 230 229 230 232 230 227 227 227 229 233 233 227 219 219 229 228 226 225 225 235 241 230 222 230 231 223 219 221 219 217 218 218 215 218 223 229 234 236 236 231 223 222 219 211 206 201 200 204 206 202 197 195 194 193 193 190 188 188 192 196 200 203 204 200 195 195 207 216 214 212 215 217 218 225 239 252 262 269 277
237 236 236 231 227 229 233 234 233 231 226 225 225 221 223 230 231 231 228 219 219 228 224 220 226 225 227 236 230 224 239 235 212 208 213 214 215 218 214 212 219 225 230 233 234 232 226 220 219 213 206 206 206 209 211 209 204 201 198 193 192 193 191 189 190 194 199 203 206 202 196 196 201 212 216 211 210 212 216 222 231 245 258 267 273 277
236 232 235 232 225 223 227 231 234 234 226 222 221 215 217 225 225 228 225 217 221 228 222 217 225 228 227 233 232 229 240 227 206 205 206 208 213 217 215 216 220 224 228 230 229 229 227 221 215 209 207 208 208 210 207 197 194 194 191 189 189 191 192 193 196 199 201 203 204 200 202 208 213 217 219 217 217 220 225 232 238 248 258 266 273 274
240 235 235 232 227 223 226 227 226 229 227 219 215 211 212 213 213 225 223 219 226 230 224 222 228 232 230 229 229 227 229 216 205 207 204 205 211 214 216 219 220 223 227 228 229 231 226 217 209 206 206 206 208 214 210 198 194 194 192 192 192 193 196 199 200 200 202 204 206 207 213 219 221 224 228 227 225 228 234 239 245 254 261 264 265 261
238 237 232 230 229 226 228 227 220 225 230 220 212 209 211 209 208 218 218 217 227 231 228 227 229 227 221 221 221 219 224 217 208 209 202 200 206 208 212 218 221 227 231 231 231 229 221 212 207 204 204 205 208 214 211 204 201 198 196 198 199 200 202 202 202 203 205 209 210 210 214 219 222 226 230 230 230 232 237 245 251 255 257 256 250 245
239 240 231 229 230 226 227 226 220 226 236 225 215 215 219 215 213 221 221 214 217 224 227 223 223 221 214 220 224 213 215 218 212 211 202 198 202 205 212 220 225 233 238 236 231 224 215 209 206 204 203 204 206 208 208 207 204 200 199 201 200 201 203 203 204 205 207 211 212 211 212 216 220 223 227 228 230 234 240 248 252 249 246 244 242 242
237 242 237 231 231 227 225 224 217 217 224 225 218 218 221 216 212 221 230 226 214 215 225 215 212 218 213 221 230 216 210 213 213 214 213 211 210 210 215 219 225 236 241 236 229 222 212 206 204 203 202 204 205 205 207 207 206 203 205 205 200 199 201 203 206 206 207 211 212 213 213 215 220 223 226 227 229 236 242 247 247 243 241 242 243 244
237 242 243 233 229 227 222 221 219 215 213 219 222 219 218 217 216 217 222 228 220 218 225 209 199 211 216 222 228 219 211 213 216 218 222 228 224 220 221 223 226 234 232 225 224 221 212 203 199 200 202 203 204 207 208 210 212 212 213 211 204 203 205 207 210 211 211 212 214 215 215 218 223 225 228 228 229 234 238 242 244 242 242 243 242 239
240 244 246 234 225 229 222 215 220 220 213 214 220 217 211 212 218 219 216 219 219 220 226 215 205 212 220 225 227 223 217 215 218 225 229 235 234 229 229 229 229 228 221 215 215 212 203 195 194 198 202 205 208 211 211 211 214 215 217 213 206 207 211 212 213 215 216 216 217 220 221 223 225 226 229 230 231 233 236 240 242 241 241 241 235 226
234 236 243 237 224 225 226 214 215 219 216 216 220 221 219 216 215 217 217 215 214 219 225 227 225 224 224 228 227 225 224 218 217 226 232 233 236 234 231 228 227 225 219 215 212 205 198 193 195 199 204 208 210 214 217 217 217 217 217 212 208 211 217 218 218 218 219 220 222 224 225 226 226 226 229 231 232 233 235 241 240 237 236 233 225 217
233 229 233 238 228 219 222 218 213 215 220 220 220 221 222 222 218 218 222 220 216 217 218 220 226 228 227 229 224 219 223 222 215 217 226 231 233 235 231 225 223 222 217 217 216 211 207 203 200 201 205 207 208 215 220 217 214 213 212 212 214 218 223 226 225 223 223 225 226 227 228 230 230 229 231 235 235 234 237 240 237 232 231 227 220 215
231 227 225 229 227 215 216 223 217 217 225 222 221 224 224 223 219 219 227 228 223 220 217 213 221 230 229 224 220 218 221 226 220 214 222 231 231 231 231 224 219 216 213 214 214 213 210 205 201 204 209 210 212 213 209 207 210 213 214 218 223 229 231 231 227 224 226 227 228 229 230 232 233 234 236 237 234 233 234 233 227 224 226 228 226 221
226 227 227 225 223 214 214 224 219 218 228 221 219 228 230 229 223 218 223 227 226 230 225 214 216 228 228 221 220 221 222 228 230 222 225 230 227 227 230 225 217 212 207 206 209 212 213 210 208 209 212 215 216 213 211 216 223 223 223 226 229 233 236 232 226 226 229 229 229 232 233 234 235 236 236 233 230 229 228 224 221 223 229 234 233 229
227 228 230 229 227 223 224 228 217 213 222 218 218 223 224 230 226 221 223 222 222 229 228 222 224 227 228 225 222 222 222 228 234 232 231 229 223 224 229 230 223 213 208 207 209 212 213 211 208 205 209 217 221 221 222 225 226 225 227 231 232 233 231 228 230 235 235 232 229 231 234 235 236 236 231 226 222 220 221 223 226 230 236 238 232 227
225 224 227 228 227 227 229 229 221 219 219 216 224 229 227 230 229 224 220 215 218 222 216 215 224 224 225 227 225 224 224 229 235 236 232 224 219 222 226 229 224 214 210 209 206 207 210 212 211 211 216 221 226 228 226 225 225 225 227 231 232 230 227 229 237 239 235 232 232 234 236 235 234 232 226 219 216 215 217 223 228 231 236 237 230 224
220 220 222 223 222 221 223 224 221 221 220 220 230 237 234 235 234 226 218 214 221 222 213 211 214 215 223 227 226 227 228 231 235 233 226 220 213 211 211 213 213 211 210 211 211 214 218 218 218 220 224 228 233 232 225 223 225 223 224 227 228 228 229 234 239 238 232 232 238 241 238 231 227 223 219 215 215 217 221 227 230 232 236 238 235 229
221 223 225 226 226 223 221 222 222 221 220 223 234 240 236 234 234 226 218 220 227 225 224 222 212 208 218 224 223 226 227 229 231 227 222 218 209 203 202 200 201 205 207 207 207 211 217 217 215 221 235 242 238 226 214 213 217 216 217 221 222 223 228 234 236 235 231 230 235 236 229 222 218 216 215 217 218 220 227 233 235 237 238 240 237 233
220 227 231 232 233 230 224 222 224 226 226 229 237 242 238 234 233 224 222 229 230 225 225 224 213 209 218 223 223 224 224 224 224 222 218 211 201 194 188 180 180 184 184 181 181 192 215 224 219 224 236 236 223 212 207 209 217 222 223 224 225 225 231 234 228 223 223 227 232 230 221 215 215 219 228 232 228 228 232 236 237 239 239 239 237 234
223 228 229 230 229 228 225 221 221 226 230 233 238 239 237 235 232 226 231 238 235 228 223 218 213 214 219 221 223 224 224 223 221 220 212 202 196 190 179 172 175 178 177 181 192 212 240 243 234 232 230 221 219 234 242 232 229 233 232 231 231 226 224 220 213 215 225 228 225 219 213 213 219 227 236 238 236 236 237 238 240 238 236 235 236 237
229 231 232 230 229 227 224 222 223 227 231 232 232 233 233 233 231 229 236 242 238 232 224 213 211 223 227 226 224 221 223 225 226 225 216 206 204 200 192 190 195 201 211 224 232 237 246 251 249 247 243 241 249 264 270 259 244 237 230 227 226 220 217 216 216 225 231 220 212 212 219 228 236 240 243 244 244 245 244 245 244 238 233 234 238 240
228 232 234 232 233 233 229 224 224 228 230 229 228 230 232 233 233 231 234 238 234 229 225 218 216 225 231 230 223 216 218 225 229 228 222 215 211 209 208 210 212 218 229 236 238 239 244 248 248 248 249 252 259 266 268 263 255 252 247 241 234 227 225 226 228 230 227 223 226 233 238 244 246 247 250 251 250 251 252 251 246 240 236 238 241 244
229 232 233 230 233 239 237 229 225 224 224 227 231 240 246 242 234 232 234 236 231 223 223 226 226 226 228 227 221 216 219 225 226 223 220 217 213 214 219 220 219 225 231 232 235 240 243 243 242 244 249 252 257 262 261 256 255 259 257 251 244 238 235 236 237 237 238 242 247 248 247 249 248 247 249 251 253 254 253 249 244 242 243 244 246 249
230 230 232 232 233 241 246 239 232 226 224 234 241 250 255 247 234 232 236 235 230 224 224 227 226 223 223 223 222 222 223 224 224 224 226 226 224 226 231 231 229 232 234 234 236 240 244 247 247 248 251 254 256 256 256 252 252 256 256 251 248 245 243 242 242 243 247 251 255 255 253 253 253 252 251 253 253 251 248 247 248 250 252 252 253 254
236 228 229 230 227 237 247 241 231 229 232 239 243 252 259 249 233 232 235 232 231 232 230 227 223 223 226 227 223 219 216 216 218 221 225 227 228 231 234 237 236 235 237 238 239 242 246 249 252 253 254 257 257 253 252 252 251 252 254 254 253 253 251 248 247 250 253 255 258 261 261 260 261 262 261 259 257 255 254 255 256 258 259 259 259 259
237 231 228 226 221 231 243 237 230 233 234 236 243 254 262 254 237 227 227 231 233 229 223 219 220 223 226 224 214 204 201 206 211 217 224 228 231 233 235 239 241 241 243 242 241 244 248 251 254 256 256 258 259 255 252 252 252 253 255 257 258 257 254 253 254 257 260 261 263 264 266 267 268 268 268 268 266 265 265 264 264 263 263 263 264 264
233 230 228 226 224 228 233 231 229 229 230 236 246 252 252 249 242 227 221 237 247 237 224 219 218 219 215 210 204 198 196 201 211 222 230 233 235 236 236 238 241 242 244 244 243 245 247 249 250 251 253 254 257 256 253 253 254 255 257 259 258 256 255 255 258 260 262 264 266 266 267 268 269 269 270 270 270 270 271 271 270 269 267 267 267 267
225 227 231 232 232 229 226 226 229 230 233 238 241 242 236 234 240 233 223 237 253 244 228 217 215 216 214 210 207 205 203 211 227 234 235 234 235 237 236 238 240 241 243 246 247 248 248 248 247 247 249 250 252 252 252 253 254 256 258 259 258 256 255 256 260 263 263 264 265 265 266 267 269 270 271 270 270 270 271 271 272 272 271 271 270 270
232 234 236 234 236 234 227 228 232 231 235 239 240 243 241 239 246 242 228 233 249 241 224 217 216 216 214 213 217 220 225 235 241 240 237 236 237 238 238 239 241 242 243 245 247 248 249 249 248 249 250 251 252 253 253 255 256 257 259 260 260 260 258 260 264 267 266 266 267 267 268 269 270 271 271 271 271 270 271 271 271 271 272 272 272 271
250 247 242 236 238 239 235 236 239 235 237 244 247 248 245 245 252 243 227 230 237 226 216 222 222 216 214 217 223 229 235 243 244 241 239 238 238 238 237 238 240 240 240 242 244 245 245 246 246 248 250 252 253 254 254 256 257 258 261 263 263 262 263 264 267 268 268 269 270 270 271 271 271 272 272 271 271 271 272 272 271 271 271 271 272 272
254 250 247 244 243 243 239 239 242 242 243 248 252 254 250 244 240 230 221 231 230 215 206 210 210 211 218 224 228 233 237 241 242 240 238 237 238 239 238 238 240 241 243 245 247 246 245 247 248 250 251 253 255 255 255 256 257 259 261 263 264 265 265 266 267 268 269 270 271 271 272 272 272 272 272 272 272 273 273 273 273 273 272 272 272 273
248 247 248 245 242 244 240 236 240 245 247 251 256 258 252 241 232 227 226 229 225 212 206 205 206 213 224 229 234 238 238 236 236 236 236 238 240 240 239 238 239 242 245 247 247 247 247 248 249 251 253 255 256 257 257 257 259 260 261 262 264 265 267 267 267 268 269 270 271 272 272 272 272 273 273 272 273 273 274 275 275 274 274 273 273 273
245 246 247 242 239 243 238 232 237 243 249 256 259 258 251 237 230 231 228 224 221 214 208 205 207 216 223 227 231 234 233 232 232 233 236 238 239 239 238 238 240 243 245 246 248 249 249 249 250 252 254 256 257 258 259 259 260 262 263 263 265 267 268 269 270 270 272 273 273 273 273 273 273 273 274 274 274 275 275 275 275 274 274 273 272 271
243 240 240 242 244 245 239 236 240 244 255 263 259 253 251 240 231 230 227 223 225 223 215 213 216 219 221 226 229 230 231 233 234 236 237 238 239 239 239 240 243 245 246 248 251 253 253 253 254 255 256 258 260 261 261 261 262 264 265 266 268 270 270 271 272 273 274 275 275 275 275 275 275 275 275 276 276 276 276 276 276 275 275 274 273 272
252 243 238 245 248 246 243 244 242 243 257 267 253 243 245 241 233 233 233 232 235 234 228 227 230 229 225 227 230 232 233 236 239 241 242 242 242 242 243 244 247 248 249 252 255 256 257 257 257 257 258 260 261 261 262 263 264 266 267 268 270 272 273 273 274 275 275 276 276 276 276 276 276 276 276 277 277 277 277 277 277 276 275 275 274 273
256 243 239 246 249 244 239 238 237 238 252 262 249 239 240 234 229 232 236 238 241 241 238 239 241 240 237 234 236 239 240 242 244 246 248 249 249 249 248 249 251 253 255 257 259 261 261 261 260 260 262 264 264 264 265 266 266 269 270 270 272 273 273 274 275 275 276 276 277 277 278 278 278 278 278 278 278 278 278 277 277 277 276 275 274 273
251 246 249 251 248 247 245 244 245 246 247 250 247 242 240 234 230 230 231 235 239 240 241 243 245 246 246 245 247 250 251 252 252 253 253 253 253 253 252 252 255 258 259 261 264 265 265 264 263 263 265 268 269 269 269 269 269 271 273 273 274 274 274 275 275 276 277 277 277 278 279 279 279 279 279 279 279 279 278 278 278 277 276 276 275 274
263 267 265 256 251 252 252 252 253 250 245 244 245 245 245 243 240 237 234 235 237 239 241 244 246 248 250 252 254 256 258 259 259 259 259 257 255 254 253 255 259 261 262 264 266 267 266 265 265 265 267 269 271 271 271 271 271 273 274 275 275 275 276 277 277 278 278 279 279 279 279 280 280 280 280 280 279 279 278 278 277 277 276 276 275 274
271 274 269 262 260 257 251 250 252 252 249 248 246 246 247 246 244 243 241 240 240 242 244 247 249 251 253 255 255 256 257 258 258 259 260 259 257 256 256 258 261 263 265 267 268 268 267 267 268 268 269 271 273 273 273 273 274 275 276 276 276 276 277 278 279 280 280 280 280 280 281 281 281 282 282 282 281 281 280 278 278 277 277 276 276 276
280 277 270 266 264 260 254 250 250 251 254 256 255 253 251 248 244 243 244 244 244 245 247 250 251 252 254 256 256 255 255 256 258 260 261 259 258 259 261 262 264 267 268 268 268 268 268 268 270 270 270 272 274 274 274 274 275 275 276 276 277 278 280 281 282 283 283 282 282 282 283 283 283 283 283 283 282 282 281 280 278 278 277 277 276 276
290 282 276 271 264 261 259 253 249 253 256 255 254 254 251 246 242 242 244 247 248 249 250 251 252 253 254 256 257 256 255 256 259 262 264 263 262 263 264 264 266 267 268 267 268 268 268 268 269 269 270 272 274 273 274 275 276 276 277 278 280 281 282 283 283 284 283 283 283 283 284 284 284 284 284 283 283 283 282 281 280 278 277 277 276 276
291 280 275 271 263 259 257 252 250 254 254 249 247 249 249 247 244 243 245 248 251 253 254 254 254 254 254 256 257 257 257 259 261 264 266 266 265 266 266 265 266 267 267 267 268 269 269 269 270 271 273 274 274 276 277 278 279 279 280 281 283 284 284 284 284 284 284 284 284 285 285 285 285 285 285 285 284 284 284 283 282 281 279 278 277 277